Regional Weather Roundup
Issued by NWS Cleveland, OH

Home | Current Version | Previous Version | Graphics & Text | Print | Product List | Glossary On
Versions: 1 2 3 4 5 6 7 8 9 10 11 12 13 14 15 16 17 18 19 20 21 22 23 24 25 26 27 28 29 30 31 32 33 34 35 36 37 38 39 40 41 42 43 44 45 46 47 48 49 50
000
ASUS41 KCLE 140700
RWRCLE
OHIO REGIONAL WEATHER ROUNDUP
NATIONAL WEATHER SERVICE WILMINGTON, OH
200 AM EST THU DEC 14 2017

NOTE: "FAIR" INDICATES FEW OR NO CLOUDS BELOW 12,000 FEET WITH NO
SIGNIFICANT WEATHER AND/OR OBSTRUCTIONS TO VISIBILITY.

OHZ001>008-015>018-024>027-034-035-043-044-140800-
   NORTHWEST OHIO

CITY           SKY/WX    TMP DP  RH WIND       PRES   REMARKS
DEFIANCE       FAIR      20  14  77 NW12      29.67R WCI   8
FINDLAY        FLURRIES  25  20  81 NW14      29.60R WCI  13
TOLEDO EXPRESS LGT SNOW  21  19  92 NW12      29.63R FOG     WCI   9
TOLEDO EXEC    LGT SNOW  22  17  81 N13G22    29.63R WCI  10
LIMA           CLOUDY    24  20  84 NW16      29.62R WCI  11
$$

OHZ009>014-019>023-028>033-038-089-140800-
   NORTHEAST OHIO

CITY           SKY/WX    TMP DP  RH WIND       PRES   REMARKS
CLE-HOPKINS    LGT SNOW  25  22  88 NE7       29.50R FOG     WCI  17
CLE-LAKEFRONT  FLURRIES  24  20  84 E6        29.48R WCI  17
CUY CO. ARPT   NOT AVBL
LORAIN-ELYRIA  LGT SNOW  25  20  81 N8        29.50R WCI  16
ASHTABULA      LGT SNOW  20  18  92 NE3       29.46R FOG
AKRON-CANTON   LGT SNOW  30  27  88 W14       29.39R VSB 3/4 WCI  19
WOOSTER        LGT SNOW  30  27  88 NW20      29.43R FOG     WCI  17
MANSFIELD      LGT SNOW  26  24  92 NW13      29.48R FOG     WCI  15
YOUNGSTOWN     LGT SNOW  22  19  89 NE9       29.40R VSB 1   WCI  12
$$

OHZ042-051>053-060>062-070>072-077>081-140800-
  SOUTHWEST OHIO

CITY           SKY/WX    TMP DP  RH WIND       PRES   REMARKS
CINC-COVINGTON CLOUDY    35  26  69 NW22G38   29.68R WCI  23
CINC-LUNKEN    CLOUDY    37  25  61 W18G40    29.70R
HAMILTON       CLOUDY    34  24  67 NW21G29   29.70R WCI  22
DAYTON         NOT AVBL
WRIGHT-PAT AFB CLOUDY    32  22  66 W23G39    29.63R WCI  19
DAYTON GENERAL CLOUDY    32  23  69 W16G25    29.65R WCI  21
WILMINGTON     MIX PCPN  32  26  78 NW23G35   29.61R WCI  19
$$

OHZ036-037-039>041-045>050-054>059-063>069-073>076-082>088-140800-
  CENTRAL AND SOUTHEAST OHIO

CITY           SKY/WX    TMP DP  RH WIND       PRES   REMARKS
COLUMBUS       LGT SNOW  33  27  78 W20G32    29.55R WCI  21
OSU AIRPORT    LGT SNOW  32  26  78 W25G37    29.56R WCI  19
BOLTON FIELD   CLOUDY    32  24  73 W16G30    29.58R WCI  21
RICKENBACK AFB NOT AVBL
NEWARK         FLURRIES  33  27  78 W16       29.53R WCI  23
MARION         LGT SNOW  26  22  84 NW20G25   29.55R FOG     WCI  12
LANCASTER      CLOUDY    34  25  69 W14G31    29.57R WCI  25
ZANESVILLE     CLOUDY    34  28  79 W22G32    29.50R WCI  22
NEW PHILLY     LGT SNOW  33  26  75 W15G22    29.46R WCI  23
$$




USA.gov is the U.S. government's official web portal to all federal, state and local government web resources and services.